685  
ASUS42 KTBW 281618  
RWRFL  
FLORIDA REGIONAL WEATHER ROUNDUP  
NATIONAL WEATHER SERVICE TAMPA BAY RUSKIN FL  
1200 PM EDT SUN MAY 28 2017  
 
NOTE: "FAIR" INDICATES FEW OR NO CLOUDS BELOW 12,000 FEET WITH NO  
SIGNIFICANT WEATHER AND/OR S TO VISIBILITY
.  
 
FLZ001>010-012>015-112-114-115-281700-  
PANHANDLE FLORIDA  
 
CITY SKY/WX TMP DP RH WIND PRES REMARKS
 
PENSACOLA LGT RAIN 83 75 77 SW9 30.06S  
PENSACOLA NAS PTSUNNY 83 76 79 SW10 30.06S  
MILTON NAS MOSUNNY 87 73 62 W6G17 30.05  
CRESTVIEW MOSUNNY 86 71 60 W6 30.05F  
DUKE FIELD FAIR 86 71 60 W9 30.04S  
VALPARAISO PTSUNNY 85 74 69 SW13 30.05S  
PANAMA CITY FAIR 85 74 69 W12 30.04S  
TYNDALL AFB SUNNY 84 75 75 W10 30.07S  
APALACHICOLA PTSUNNY 87 76 69 NW13 30.06F HX 97  
 
STATION/POSITION SKY/WX TEMP WIND PRES WAVE SWELL
 
AIR SEA DIR/SP/G HT/PER HT/PER  
(F) (DEG/KT/KT) (MB) (FT/S) (FT/S)  
30.1N 87.6W 79 79 210/ 6/ 8 1018.0R 3/ 5 2/ 5  
29.2N 88.2W 80 79 200/ 6/ 8 1018.9  
28.8N 86.0W 79 79 300/ 2/ 2 1018.9S 2/ 8 2/ 8  
PANAMA CITY BEAC 79 80 240/ 9/ 11 1018.5F  
TOWER C 78 270/ 10/ 10 1019.3S  
28.5N 84.5W 77 78 310/ 8/ 10 1019.3R 1/ 7 2/ 7  
 

 
FLZ011-016>038-118-127-128-134-139-239-281700-  
NORTH FLORIDA  
 
CITY SKY/WX TMP DP RH WIND PRES REMARKS
 
MARIANNA PTSUNNY 87 72 60 W12 30.03F  
TALLAHASSEE MOSUNNY 88 71 57 W12 30.04F  
PERRY PTSUNNY 87 72 61 NW8 30.06S  
CROSS CITY PTSUNNY 88 70 55 NW10G20 30.06F  
LAKE CITY PTSUNNY 82 70 65 NW9G18 30.05S  
GAINESVILLE MOSUNNY 86 70 58 NW14 30.06R  
WILLISTON SUNNY 88 72 58 W15 30.07R  
PALATKA FAIR 86 72 62 NW12G20 30.05S  
MAYPORT NAS SUNNY 84 70 62 W8 30.03R  
JACKSONVILLE MOSUNNY 85 75 72 W9 30.02S  
JAX NAS MOSUNNY 85 70 60 VRB6 30.03F  
FERNANDINA BEA FAIR 88 72 58 W8G17 30.01S  
ST AUGUSTINE SUNNY 86 71 60 W12 30.04S  
PALM COAST FAIR 85 70 61 W9 30.05R  
 
STATION/POSITION SKY/WX TEMP WIND PRES WAVE SWELL
 
AIR SEA DIR/SP/G HT/PER HT/PER  
(F) (DEG/KT/KT) (MB) (FT/S) (FT/S)  
SHELL POINT NOT AVBL  
KEATON BEACH 78 260/ 11/ 12 1017.8F  
CEDAR KEY 81 300/ 8/ 11 1018.6R  
FERNANDINA 84 78 270/ 6/ 11 1017.3R  
30.7N 81.3W 79 N/A 1/ 7  
MAYPORT 80 79 260/ 7/ 12 1017.3R  
31.4N 80.9W 79 78 230/ 8/ 8 1015.7R 2/ 4 2/ 9  
ST AUGUSTINE 84 76 270/ 6/ 10 1017.9R  
 

 
FLZ040-043>046-052-053-057-058-063-144-281700-  
INTERIOR CENTRAL FLORIDA  
 
CITY SKY/WX TMP DP RH WIND PRES REMARKS
 
OCALA PTSUNNY 86 72 62 N12G18 30.07R  
THE VILLAGES N/A 88 72 58 MISG 29.96S  
LEESBURG MOSUNNY 87 71 58 W7 30.07S  
SANFORD SUNNY 87 67 51 W13 30.05R  
ORLANDO EXEC SUNNY 86 67 52 NW10 30.06R  
ORLANDO INTL MOSUNNY 84 66 54 W10 30.05F  
KISSIMMEE SUNNY 86 68 54 W13 30.06F  
WINTER HAVEN SUNNY 88 65 46 W9 30.07F  
LAKELAND MOSUNNY 84 70 61 NW12 30.07F  
BARTOW SUNNY 84 68 58 NW5G13 30.07F  
OKEECHOBEE SUNNY 88 63 42 W6 30.07S  
 

 
FLZ041-047-054-059-064-141-147-281700-  
EAST CENTRAL FLORIDA  
 
CITY SKY/WX TMP DP RH WIND PRES REMARKS
 
ORMOND BEACH MOSUNNY 86 70 58 W12G17 30.05R  
DAYTONA BEACH MOSUNNY 87 70 56 W13 30.04S  
DELAND SUNNY 86 70 58 NW12 30.04S  
NEW SMYRNA BEA MOSUNNY 88 68 51 W7G17 30.05S  
JFK SPACE CTR SUNNY 86 70 58 W8 30.03S  
CAPE CANAVERAL SUNNY 88 67 49 NW7 30.03S  
PATRICK AFB SUNNY 86 65 50 NW5 30.05R  
MELBOURNE SUNNY 89 64 43 NW7 30.05S  
VERO BEACH SUNNY 89 57 33 W10 30.06S  
FT PIERCE SUNNY 90 60 36 VRB7 30.06R  
 
STATION/POSITION SKY/WX TEMP WIND PRES WAVE SWELL
 
AIR SEA DIR/SP/G HT/PER HT/PER  
(F) (DEG/KT/KT) (MB) (FT/S) (FT/S)  
28.5N 80.2W 75 77 320/ 10/ 12 1018.9R 2/ 3 2/ 8  
28.9N 78.5W 81 80 210/ 8/ 10 1016.8S 2/ 5 2/ 5  
TRIDENT PIER 83 77 280/ 5/ 8 1019.1R  
28.4N 80.5W 77 N/A 1/ 8  
27.5N 80.2W 77 N/A 1/ 8  
 

 
FLZ050-056-061-142-242-148-248-149-249-151-251-155-255-  
160-260-281700-  
WEST CENTRAL FLORIDA  
 
CITY SKY/WX TMP DP RH WIND PRES REMARKS
 
CRYSTAL RIVER PTSUNNY 84 73 70 W12G22 30.08R  
INVERNESS PTSUNNY 88 72 58 W7 30.07R  
BROOKSVILLE MOSUNNY 88 70 55 NW13 30.08S  
CLEARWATER AIR FAIR 82 72 69 N10 30.08S  
ST PETE CLEARW MOSUNNY 87 71 58 NW12 30.07S  
TAMPA INTL MOSUNNY 88 68 51 W12G20 30.07S  
TAMPA EXEC MOSUNNY 90 70 51 NW8 30.08R HX 95  
PLANT CITY MOSUNNY 88 72 58 NW13G18 30.09S  
MACDILL AFB SUNNY 88 74 64 NW9 30.07S HX 96  
PETER O KNIGHT PTSUNNY 88 73 62 NW6 30.07S HX 96  
ST PETERSBURG SUNNY 86 69 56 N10 30.06R  
SARASOTA SUNNY 88 67 49 NW12 30.07R  
VENICE FAIR 84 75 74 NW12 30.09R  
 
STATION/POSITION SKY/WX TEMP WIND PRES WAVE SWELL
 
AIR SEA DIR/SP/G HT/PER HT/PER  
(F) (DEG/KT/KT) (MB) (FT/S) (FT/S)  
27.3N 84.2W 79 N/A 1/ 8  
CLEARWATER BEACH 80 82 340/ 11/ 12 1019.0R  
MIDDLE TAMPA BAY 80 CALM / 2 1018.9R  
VENICE 81 82 290/ 10/ 11 1018.0R  
 

 
FLZ066-069-070-075>078-162-262-165-265-281700-  
SOUTHWEST FLORIDA AND KEYS  
 
CITY SKY/WX TMP DP RH WIND PRES REMARKS
 
PUNTA GORDA SUNNY 88 69 53 W10 30.09R  
FT MYERS SUNNY 87 71 58 VRB6 30.07R  
SOUTHWEST INTL SUNNY 87 68 52 W7 30.07S  
NAPLES MOSUNNY 87 70 56 W9 30.07R  
MARCO ISLAND SUNNY 90 70 51 W9 30.08S HX 95  
IMMOKALEE FAIR 88 68 51 VRB5G12 30.08S  
MARATHON SUNNY 90 77 65 S5 30.07R HX 103  
KEY WEST NAS MOSUNNY 87 76 69 S8 30.08R HX 97  
KEY WEST INTL MOSUNNY 86 76 71 SE7 30.08R HX 96  
 
STATION/POSITION SKY/WX TEMP WIND PRES WAVE SWELL
 
AIR SEA DIR/SP/G HT/PER HT/PER  
(F) (DEG/KT/KT) (MB) (FT/S) (FT/S)  
NAPLES 85 300/ 5/ 7 1018.6R  
DRY TORTUGAS 82 90/ 6/ 7 1018.7R  
SAND KEY 83 170/ 6/ 7 1019.1R  
LONG KEY 84 88 CALM / 1 1018.1R  
MOLASSES REEF 84 82 210/ 1/ 1 1018.3R  
 

 
FLZ067-068-071>074-168-172>174-281700-  
SOUTHEAST FLORIDA  
 
CITY SKY/WX TMP DP RH WIND PRES REMARKS
 
W PALM BEACH SUNNY 89 60 37 NW5 30.06R  
BOCA RATON SUNNY 88 66 48 W7 30.06R  
FT LAUDER-EXEC SUNNY 93 61 34 W7 30.06R  
FT LAUDERDALE SUNNY 91 65 41 VRB6 30.05R  
POMPANO BEACH SUNNY 91 64 40 MISG 30.06R  
PEMBROKE PINES SUNNY 92 63 38 W8 30.08R  
OPA LOCKA SUNNY 91 73 55 W7 30.07R HX 99  
MIAMI SUNNY 92 65 40 W6 30.06R  
WEST KENDALL N/A N/A N/A N/A MISG 30.06R  
HOMESTEAD MOSUNNY 91 74 57 SW9 30.05S HX 100  
 
STATION/POSITION SKY/WX TEMP WIND PRES WAVE SWELL
 
AIR SEA DIR/SP/G HT/PER HT/PER  
(F) (DEG/KT/KT) (MB) (FT/S) (FT/S)  
PORT EVERGLADES 84 90/ 3/ 5 1018.0R  
VIRGINIA KEY 84 85 200/ 4/ 5 1017.4R  
LAKE WORTH 83 81 1018.8R  
FOWEY ROCKS 85 82 220/ 5/ 5 1018.2R  
SETTLEMENT POINT 83 210/ 11/ 12 1018.0R  
 

 
 
 
 
CLICK HERE TO GO TO PREVIOUS BULLETINS.

The Nexlab FL Page Main Text Page